Regional Weather Roundup
Issued by NWS

Home | Current Version | Previous Version | Text Only | Print | Product List | Glossary On
Versions: 1 2 3 4 5 6 7 8 9 10 11 12 13 14 15 16 17 18 19 20 21 22 23 24 25 26 27 28 29 30 31 32 33 34 35 36 37 38 39 40 41 42 43 44 45 46 47 48 49 50
681
ASUS46 KPQR 040610
RWROR

OREGON REGIONAL WEATHER ROUNDUP
NATIONAL WEATHER SERVICE PORTLAND OR
1000 PM PST SAT DEC 03 2016

NOTE: "FAIR" INDICATES FEW OR NO CLOUDS BELOW 12,000 FEET WITH
NO SIGNIFICANT WEATHER AND/OR OBSTRUCTIONS TO VISIBILITY.

ORZ001>013-040700-
NORTHWEST OREGON


CITY           SKY/WX    TMP DP  RH WIND       PRES   REMARKS
ASTORIA        LGT RAIN  51  44  77 SW12      30.17F
6HR MIN TEMP:  50; 6HR MAX TEMP:  52; 6HR PCP:  0.16;

NEWPORT        CLOUDY    52  45  76 SW16G22   30.27F
PORTLAND       LGT RAIN  48  43  82 SW12      30.23F
6HR MIN TEMP:  48; 6HR MAX TEMP:  50; 6HR PCP:  0.04;

VANCOUVER WA   LGT RAIN  48  43  82 VRB6      30.22F
6HR MIN TEMP:  48; 6HR MAX TEMP:  50; 6HR PCP:  0.04;

SCAPPOOSE      LGT RAIN  46  43  89 S5        30.20F
6HR MIN TEMP:  46; 6HR MAX TEMP:  49; 6HR PCP:  0.03;

HILLSBORO      LGT RAIN  47  44  90 S12       30.21F
6HR MIN TEMP:  47; 6HR MAX TEMP:  49; 6HR PCP: TRACE;

AURORA         LGT RAIN  48  43  82 S12       30.24F
6HR MIN TEMP:  48; 6HR MAX TEMP:  51; 6HR PCP: TRACE;

MCMINNVILLE    LGT RAIN  48  43  82 S10       30.23F
6HR MIN TEMP:  47; 6HR MAX TEMP:  50; 6HR PCP:  0.01;

SALEM          CLOUDY    48  42  80 S12       30.25F
6HR MIN TEMP:  48; 6HR MAX TEMP:  50;

CORVALLIS        N/A     46  43  87 S9        30.26F
EUGENE         MOCLDY    45  41  86 S8        30.29F
6HR MIN TEMP:  42; 6HR MAX TEMP:  50; 6HR PCP: TRACE;

$$

ORZ021-028-040700-
SOUTHWEST OREGON


CITY           SKY/WX    TMP DP  RH WIND       PRES   REMARKS
NORTH BEND     CLOUDY    45  45 100 S8        30.31F
6HR MIN TEMP:  45; 6HR MAX TEMP:  54;

BROOKINGS      CLEAR     43  42  97 CALM      30.33F
ROSEBURG       CLOUDY    46  43  89 SW3       30.34R
6HR MIN TEMP:  45; 6HR MAX TEMP:  48;

SEXTON SUMMIT  PTCLDY    36  32  85 S9        30.28S WCI  29
6HR MIN TEMP:  35; 6HR MAX TEMP:  37;

MEDFORD        CLEAR     39  38  96 CALM      30.35R
6HR MIN TEMP:  37; 6HR MAX TEMP:  48;

$$

ORZ014>016-041-040700-
COLUMBIA GORGE


CITY           SKY/WX    TMP DP  RH WIND       PRES   REMARKS
TROUTDALE      LGT RAIN  49  44  83 SW7       30.23F
6HR MIN TEMP:  48; 6HR MAX TEMP:  51; 6HR PCP:  0.01;

THE DALLES     MOCLDY    47  35  63 SW8       30.15S
6HR MIN TEMP:  45; 6HR MAX TEMP:  53; 6HR PCP: TRACE;

$$

ORZ029>031-041-044-049-050-061>064-502-503-505>511-040700-
EASTERN OREGON


CITY           SKY/WX    TMP DP  RH WIND       PRES   REMARKS
REDMOND        PTCLDY    31  23  72 SE5       30.16F WCI  26
6HR MIN TEMP:  27; 6HR MAX TEMP:  43;

BEND           PTCLDY    39  25  56 SW16      30.16R WCI  30
PRINEVILLE     MOCLDY    32  27  80 NW3       30.18R
KLAMATH FALLS  CLEAR     26  24  92 CALM      30.26R
6HR MIN TEMP:  25; 6HR MAX TEMP:  45;

LAKEVIEW       PTCLDY    21  18  86 NE6       30.27S WCI  14
HERMISTON      CLOUDY    44  31  60 S10       30.14S
6HR MIN TEMP:  42; 6HR MAX TEMP:  50;

PENDLETON      CLOUDY    44  29  55 W14       30.12F
6HR MIN TEMP:  39; 6HR MAX TEMP:  45;

JOHN DAY       CLOUDY    34  28  79 E5        30.12F WCI  30
MEACHAM        NOT AVBL
LA GRANDE      CLOUDY    39  25  56 S14G22    30.12S WCI  31
6HR MIN TEMP:  37; 6HR MAX TEMP:  39;

BAKER CITY     CLOUDY    28  27  96 CALM      30.14S
6HR MIN TEMP:  27; 6HR MAX TEMP:  33;

BURNS          MOCLDY    24  21  88 CALM      30.17F
6HR MIN TEMP:  24; 6HR MAX TEMP:  37;

ROME             N/A     32  18  56 SW5       30.17S WCI  27
6HR MIN TEMP:  29; 6HR MAX TEMP:  44;

ONTARIO        MOCLDY    31  27  85 SW5       30.20F WCI  26
6HR MIN TEMP:  31; 6HR MAX TEMP:  41;

$$




USA.gov is the U.S. government's official web portal to all federal, state and local government web resources and services.